Location: High Cliff State Park
(44.1557°N, 88.2948°W)
Time: 17:40:50
(UTC-05:00)

Amateur Radio Satellites - All Passes

Search period start: 27 April 2017 17:10
Search period end: 28 April 2017 17:10
Location: High Cliff State Park, 44.1557°N, 88.2948°W

Satellite Date Start Highest point End Downlink Frequencies (MHz)
Time Altitude Azimuth
YUBILEINY 27 Apr 17:11:42 17:19:17 35° 276° (W) 17:26:54 435.215
NUDT-PHONESAT 27 Apr 17:13:04 17:14:55 13° 64° (ENE) 17:16:45 437.300
STARS 27 Apr 17:15:21 17:18:34 20° 93° (E) 17:21:45 437.465
CUBESAT XI-V 27 Apr 17:33:33 17:38:16 70° 101° (E) 17:42:58 437.345
ITUPSAT 1 27 Apr 17:38:07 17:40:34 14° 301° (WNW) 17:43:01 437.325
XW-2D 27 Apr 17:52:51 17:56:27 50° 74° (ENE) 18:00:07 145.860 - 145.880
AO-7 27 Apr 17:55:53 17:58:05 11° 275° (W) 18:00:19 .
HO-68 27 Apr 17:56:17 18:01:47 25° 56° (NE) 18:07:18 435.675
XW-2B 27 Apr 17:59:45 18:03:25 59° 75° (ENE) 18:07:08 145.730 - 145.750
KAITUO 1B 27 Apr 18:06:55 18:10:32 57° 74° (ENE) 18:14:11 145.475/437.950
XW-2C 27 Apr 18:11:39 18:15:23 85° 77° (ENE) 18:19:09 145.795 - 145.815
LilacSat-2 27 Apr 18:11:51 18:15:36 89° 88° (E) 18:19:24 437.200
DOVE 4 27 Apr 18:17:10 18:22:24 60° 260° (W) 18:27:33 437.250
KKS-1 27 Apr 18:22:12 18:26:18 37° 291° (WNW) 18:30:21 437.445
O/OREOS (USA 219) 27 Apr 18:32:08 18:34:11 13° 47° (NE) 18:36:13 437.305
NO-84 27 Apr 18:34:54 18:37:14 16° 129° (SE) 18:39:27 435.350 FM
CUTE-I 27 Apr 18:35:13 18:40:33 68° 258° (WSW) 18:45:53 437.470
XW-2F 27 Apr 18:36:34 18:40:09 48° 261° (W) 18:43:48 145.980 - 146.000
XW-2A 27 Apr 18:39:10 18:41:39 20° 68° (ENE) 18:44:09 145.665 - 145.685
NUDT-PHONESAT 27 Apr 18:44:54 18:48:26 46° 261° (W) 18:51:59 437.300
STARS 27 Apr 18:50:58 18:55:04 41° 290° (WNW) 18:59:09 437.465
CUBEBUG 2 27 Apr 18:58:18 19:01:21 19° 65° (ENE) 19:04:21 437.445
AAUSAT CUBESAT 2 27 Apr 19:05:27 19:07:53 15° 63° (ENE) 19:10:19 437.432
RS-15 27 Apr 19:06:28 19:14:07 20° 263° (W) 19:21:36 29.354- 29.394
CUBESAT XI-V 27 Apr 19:12:26 19:15:05 15° 299° (WNW) 19:17:42 437.345
CUTE 1.7 + AOD 2 27 Apr 19:16:18 19:20:27 59° 73° (ENE) 19:24:38 437.475
XW-2D 27 Apr 19:29:30 19:30:58 12° 270° (W) 19:32:25 145.860 - 145.880
SEEDS 27 Apr 19:34:14 19:38:21 60° 74° (ENE) 19:42:31 437.485
M-CUBED/EXP-1 PRIME 27 Apr 19:34:21 19:36:30 14° 94° (E) 19:38:34 437.505
ZACube-1 27 Apr 19:36:15 19:38:55 17° 64° (ENE) 19:41:35 437.345
XW-2B 27 Apr 19:37:38 19:38:00 10° 271° (W) 19:38:22 145.730 - 145.750
HO-68 27 Apr 19:41:41 19:48:49 75° 255° (WSW) 19:56:02 435.675
AO-73 27 Apr 19:42:20 19:45:06 18° 65° (ENE) 19:47:52 145.935
AO-85 27 Apr 19:44:22 19:46:36 14° 37° (NE) 19:48:53 145.980
KAITUO 1B 27 Apr 19:44:35 19:44:56 10° 271° (W) 19:45:15 145.475/437.950
Oscar 11 27 Apr 19:55:59 19:59:14 21° 65° (ENE) 20:02:30 .
O/OREOS (USA 219) 27 Apr 20:09:43 20:14:20 88° 70° (ENE) 20:18:53 437.305
NO-84 27 Apr 20:10:50 20:14:30 69° 323° (NW) 20:17:50 435.350 FM
XW-2A 27 Apr 20:11:32 20:14:17 23° 264° (W) 20:17:03 145.665 - 145.685
STRAND 1 27 Apr 20:11:50 20:16:52 59° 101° (E) 20:21:55 437.568
UWE-3 27 Apr 20:17:44 20:21:59 79° 75° (ENE) 20:26:10 435.000/436.395/437.385
CUBEBUG 2 27 Apr 20:33:34 20:37:41 42° 261° (W) 20:41:45 437.445
AAUSAT CUBESAT 2 27 Apr 20:38:51 20:42:54 53° 260° (W) 20:47:00 437.432
CUTE 1.7 + AOD 2 27 Apr 20:54:43 20:56:39 13° 271° (W) 20:58:38 437.475
M-CUBED/EXP-1 PRIME 27 Apr 21:07:14 21:11:21 53° 293° (WNW) 21:15:08 437.505
ZACube-1 27 Apr 21:10:49 21:14:52 46° 261° (W) 21:18:53 437.345
SEEDS 27 Apr 21:12:37 21:14:26 12° 271° (W) 21:16:15 437.485
DELFI C3 27 Apr 21:12:38 21:16:21 38° 71° (ENE) 21:20:05 145.870
BEESAT 3 27 Apr 21:13:23 21:16:26 20° 41° (NE) 21:19:25 437.485
BEESAT 2 27 Apr 21:15:59 21:17:23 11° 33° (NNE) 21:18:47 435.950
AO-73 27 Apr 21:17:03 21:21:02 44° 261° (W) 21:25:00 145.935
AO-85 27 Apr 21:23:31 21:27:30 82° 235° (SW) 21:31:38 145.980
Oscar 11 27 Apr 21:31:07 21:35:07 38° 263° (W) 21:39:10 .
HO-68 27 Apr 21:34:37 21:37:43 13° 274° (W) 21:40:50 435.675
OBJECT BX 27 Apr 21:36:17 21:39:49 53° 73° (ENE) 21:43:22 145.990 - 145.960
UNISAT 6 27 Apr 21:47:07 21:48:50 12° 90° (E) 21:50:34 437.425
NO-84 27 Apr 21:50:08 21:52:28 17° 341° (NNW) 21:54:42 435.350 FM
STRAND 1 27 Apr 21:52:01 21:55:37 20° 299° (WNW) 21:59:12 437.568
FO-29 27 Apr 22:05:29 22:08:55 17° 92° (E) 22:12:28 435.910
PRISM 27 Apr 22:26:15 22:30:18 49° 100° (E) 22:34:18 437.425
LO-87 27 Apr 22:36:12 22:39:34 37° 72° (ENE) 22:42:56 145.935 - 145.965
DELFI C3 27 Apr 22:48:34 22:51:17 18° 268° (W) 22:54:01 145.870
BEESAT 3 27 Apr 22:50:23 22:54:18 53° 241° (WSW) 22:58:10 437.485
BEESAT 2 27 Apr 22:51:55 22:55:58 63° 53° (NE) 22:59:58 435.950
TIGRISAT 27 Apr 23:00:03 23:04:19 68° 102° (ESE) 23:08:38 435.000
ESTCUBE 1 27 Apr 23:05:22 23:09:42 49° 71° (ENE) 23:14:05 437.505/2401.250
OBJECT BX 27 Apr 23:12:59 23:13:49 11° 270° (W) 23:14:40 145.990 - 145.960
VELOX 1 27 Apr 23:14:23 23:17:32 19° 64° (ENE) 23:20:42 145.980
UNISAT 6 27 Apr 23:21:43 23:25:58 65° 286° (WNW) 23:30:16 437.425
QB50P2 27 Apr 23:27:22 23:28:46 11° 89° (E) 23:30:09 145.880/145.840
NO-84 27 Apr 23:29:47 23:31:02 12° 3° (N) 23:32:17 435.350 FM
NANOSAT C BR1 27 Apr 23:46:57 23:49:33 16° 92° (E) 23:52:09 145.865
FO-29 27 Apr 23:49:19 23:54:27 61° 288° (WNW) 23:59:52 435.910
DX 1 28 Apr 00:01:38 00:05:05 23° 65° (ENE) 00:08:32 434.975-435.025
PRISM 28 Apr 00:02:34 00:05:12 16° 297° (WNW) 00:07:48 437.425
SPROUT 28 Apr 00:05:54 00:10:04 56° 73° (ENE) 00:14:16 437.525
LO-87 28 Apr 00:11:00 00:13:09 15° 268° (W) 00:15:19 145.935 - 145.965
EO-79 28 Apr 00:14:38 00:18:30 34° 97° (E) 00:22:20 145.935-145.965
DUCHIFAT 1 28 Apr 00:15:12 00:18:52 29° 96° (E) 00:22:29 145.980
AIST 2D 28 Apr 00:16:03 00:19:35 76° 102° (ESE) 00:23:06 435.315
BEESAT 2 28 Apr 00:31:13 00:33:13 13° 250° (WSW) 00:35:12 435.950
50 SAT 28 Apr 00:34:42 00:38:10 73° 75° (ENE) 00:41:41 437.505
TIGRISAT 28 Apr 00:38:32 00:40:29 13° 299° (WNW) 00:42:26 435.000
ESTCUBE 1 28 Apr 00:43:45 00:46:47 18° 269° (W) 00:49:50 437.505/2401.250
VELOX 1 28 Apr 00:49:21 00:53:39 47° 261° (W) 00:57:59 145.980
POLYITAN 1 28 Apr 00:54:04 00:58:18 85° 283° (WNW) 01:02:30 437.675
QB50P2 28 Apr 01:00:48 01:05:00 66° 286° (WNW) 01:09:09 145.880/145.840
UKube-1 28 Apr 01:00:53 01:05:09 65° 73° (ENE) 01:09:28 .
NO-84 28 Apr 01:06:55 01:09:28 24° 25° (NNE) 01:11:54 435.350 FM
BUGSAT 1 28 Apr 01:11:31 01:15:16 37° 98° (E) 01:19:00 437.445
PCSat 28 Apr 01:16:43 01:20:30 20° 106° (ESE) 01:24:20 145.827
NANOSAT C BR1 28 Apr 01:21:30 01:25:30 46° 289° (WNW) 01:29:31 145.865
ITUPSAT 1 28 Apr 01:31:43 01:34:09 14° 59° (ENE) 01:36:36 437.325
DX 1 28 Apr 01:37:00 01:41:03 37° 262° (W) 01:45:08 434.975-435.025
SPROUT 28 Apr 01:44:04 01:46:19 14° 270° (W) 01:48:35 437.525
EO-79 28 Apr 01:50:48 01:54:04 22° 294° (WNW) 01:57:19 145.935-145.965
DUCHIFAT 1 28 Apr 01:50:57 01:54:26 26° 293° (WNW) 01:57:54 145.980
MOZHAYETS 4 28 Apr 02:08:35 02:11:03 15° 61° (ENE) 02:13:32
Oscar 19 28 Apr 02:23:17 02:28:30 69° 103° (ESE) 02:33:40 437.125/150
BEESAT 28 Apr 02:25:17 02:29:46 43° 70° (ENE) 02:34:17 436.000
YUBILEINY 28 Apr 02:28:47 02:30:30 11° 70° (ENE) 02:32:12 435.215
Gurwin Techsat 1B 28 Apr 02:36:08 02:41:21 54° 100° (E) 02:46:32 435.225
UKube-1 28 Apr 02:39:46 02:41:36 12° 270° (W) 02:43:28 .
NO-84 28 Apr 02:44:19 02:47:03 37° 225° (SW) 02:49:42 435.350 FM
BUGSAT 1 28 Apr 02:47:31 02:50:23 19° 295° (WNW) 02:53:14 437.445
PCSat 28 Apr 02:58:00 03:03:23 65° 304° (NW) 03:08:48 145.827
CUBESAT XI-V 28 Apr 03:05:22 03:06:01 10° 57° (ENE) 03:06:40 437.345
ITUPSAT 1 28 Apr 03:06:36 03:11:21 77° 257° (WSW) 03:16:08 437.325
MOZHAYETS 4 28 Apr 03:43:08 03:47:40 68° 259° (WSW) 03:52:13
KKS-1 28 Apr 03:45:28 03:49:10 26° 66° (ENE) 03:52:53 437.445
ITAMSAT 1 28 Apr 03:52:23 03:57:18 41° 99° (E) 04:02:10 435.822/435.867
AO-7 28 Apr 03:55:19 04:03:05 41° 99° (E) 04:10:48 .
Oscar 19 28 Apr 04:03:52 04:07:16 18° 300° (WNW) 04:10:39 437.125/150
BEESAT 28 Apr 04:04:06 04:07:44 22° 267° (W) 04:11:23 436.000
STARS 28 Apr 04:13:18 04:16:44 23° 65° (ENE) 04:20:10 437.465
YUBILEINY 28 Apr 04:16:50 04:25:17 61° 91° (E) 04:33:48 435.215
Gurwin Techsat 1B 28 Apr 04:16:52 04:20:55 23° 298° (WNW) 04:24:58 435.225
CUBESAT XI-V 28 Apr 04:37:55 04:42:34 80° 74° (ENE) 04:47:16 437.345
PCSat 28 Apr 04:44:49 04:47:53 15° 326° (NW) 04:50:56 145.827
RS-15 28 Apr 05:11:27 05:16:52 14° 93° (E) 05:22:19 29.354- 29.394
KKS-1 28 Apr 05:21:33 05:25:36 33° 263° (W) 05:29:40 437.445
ITAMSAT 1 28 Apr 05:32:15 05:36:34 27° 296° (WNW) 05:40:51 435.822/435.867
AO-7 28 Apr 05:48:04 05:55:57 50° 298° (WNW) 06:03:50 .
STARS 28 Apr 05:48:44 05:52:52 38° 262° (W) 05:56:59 437.465
STRAND 1 28 Apr 05:53:06 05:55:46 14° 58° (ENE) 05:58:24 437.568
SO-50 28 Apr 05:59:17 06:03:32 37° 117° (ESE) 06:07:45 436.795
XW-2F 28 Apr 06:08:06 06:10:20 15° 92° (E) 06:12:35 145.980 - 146.000
NUDT-PHONESAT 28 Apr 06:14:50 06:16:54 14° 91° (E) 06:18:58 437.300
YUBILEINY 28 Apr 06:15:03 06:22:37 32° 293° (WNW) 06:30:14 435.215
DOVE 4 28 Apr 06:15:19 06:19:28 33° 95° (E) 06:23:24 437.250
CUBESAT XI-V 28 Apr 06:19:04 06:20:31 11° 273° (W) 06:21:58 437.345
M-CUBED/EXP-1 PRIME 28 Apr 06:19:43 06:23:39 28° 61° (ENE) 06:27:35 437.505
CUTE-I 28 Apr 06:50:46 06:55:49 43° 98° (E) 07:00:50 437.470
XW-2D 28 Apr 06:57:40 07:01:27 62° 100° (E) 07:05:14 145.860 - 145.880
Tancredo 1 28 Apr 07:04:22 07:05:57 13° 133° (SE) 07:07:31 437.200
XW-2B 28 Apr 07:04:38 07:08:27 73° 103° (ESE) 07:12:16 145.730 - 145.750
HO-68 28 Apr 07:08:54 07:13:55 20° 90° (E) 07:18:56 435.675
KAITUO 1B 28 Apr 07:10:17 07:14:03 68° 101° (ESE) 07:17:50 145.475/437.950
RS-15 28 Apr 07:14:51 07:26:36 64° 115° (ESE) 07:38:43 29.354- 29.394
XW-2C 28 Apr 07:16:38 07:20:27 79° 284° (WNW) 07:24:17 145.795 - 145.815
LilacSat-2 28 Apr 07:17:33 07:21:23 74° 286° (WNW) 07:25:13 437.200
STRAND 1 28 Apr 07:29:07 07:34:14 84° 256° (WSW) 07:39:23 437.568
XW-2A 28 Apr 07:31:57 07:34:10 16° 93° (E) 07:36:23 145.665 - 145.685
ISS 28 Apr 07:37:07 07:39:42 22° 136° (SE) 07:42:18 437.550
SO-50 28 Apr 07:39:58 07:44:03 31° 315° (NW) 07:48:08 436.795
XW-2F 28 Apr 07:41:05 07:44:40 41° 288° (WNW) 07:48:16 145.980 - 146.000
AO-7 28 Apr 07:43:24 07:46:45 13° 321° (NW) 07:50:08 .
NUDT-PHONESAT 28 Apr 07:47:30 07:51:01 41° 288° (WNW) 07:54:32 437.300
DOVE 4 28 Apr 07:53:13 07:57:01 26° 294° (WNW) 08:00:39 437.250
M-CUBED/EXP-1 PRIME 28 Apr 07:53:34 07:57:53 37° 258° (WSW) 08:02:15 437.505
UWE-3 28 Apr 08:06:59 08:09:07 14° 90° (E) 08:11:15 435.000/436.395/437.385
AAUSAT CUBESAT 2 28 Apr 08:19:53 08:23:06 21° 93° (E) 08:26:17 437.432
CUBEBUG 2 28 Apr 08:22:29 08:26:14 32° 97° (E) 08:30:01 437.445
FO-29 28 Apr 08:23:17 08:24:24 11° 55° (NE) 08:25:30 435.910
CUTE-I 28 Apr 08:31:13 08:35:39 28° 296° (WNW) 08:40:04 437.470
XW-2D 28 Apr 08:33:50 08:35:09 11° 297° (WNW) 08:36:27 145.860 - 145.880
CUTE 1.7 + AOD 2 28 Apr 08:35:06 08:39:25 84° 283° (WNW) 08:43:42 437.475
Tancredo 1 28 Apr 08:38:21 08:41:27 80° 333° (NNW) 08:44:33 437.200
KAITUO 1B 28 Apr 08:46:50 08:47:31 10° 298° (WNW) 08:48:12 145.475/437.950
UNISAT 6 28 Apr 08:47:30 08:49:47 14° 62° (ENE) 08:52:05 437.425
SEEDS 28 Apr 08:51:49 08:56:06 84° 284° (WNW) 09:00:22 437.485
HO-68 28 Apr 08:55:11 09:02:25 81° 289° (WNW) 09:09:38 435.675
ZACube-1 28 Apr 08:57:20 09:00:59 27° 95° (E) 09:04:40 437.345
AO-73 28 Apr 09:03:08 09:06:49 29° 96° (E) 09:10:33 145.935
XW-2A 28 Apr 09:04:04 09:06:59 28° 290° (WNW) 09:09:54 145.665 - 145.685
ISS 28 Apr 09:12:46 09:15:59 55° 334° (NNW) 09:19:12 437.550
STRAND 1 28 Apr 09:13:37 09:14:10 10° 273° (W) 09:14:44 437.568
Oscar 11 28 Apr 09:16:29 09:20:27 33° 96° (E) 09:24:24 .
PRISM 28 Apr 09:16:36 09:20:32 42° 71° (ENE) 09:24:30 437.425
RS-15 28 Apr 09:27:56 09:39:41 50° 320° (NW) 09:51:39 29.354- 29.394
UWE-3 28 Apr 09:41:48 09:45:54 56° 287° (WNW) 09:50:05 435.000/436.395/437.385
AAUSAT CUBESAT 2 28 Apr 09:54:48 09:58:39 35° 290° (WNW) 10:02:28 437.432
CUBEBUG 2 28 Apr 09:59:24 10:02:43 23° 293° (WNW) 10:06:04 437.445
TIGRISAT 28 Apr 09:59:53 10:04:13 71° 74° (ENE) 10:08:30 435.000
PCSat 28 Apr 10:01:28 10:06:02 26° 44° (NE) 10:10:33 145.827
FO-29 28 Apr 10:02:31 10:08:39 67° 73° (ENE) 10:14:08 435.910
Tancredo 1 28 Apr 10:15:07 10:17:42 23° 348° (NNW) 10:20:17 437.200
UNISAT 6 28 Apr 10:21:42 10:26:02 62° 258° (WSW) 10:30:19 437.425
QB50P2 28 Apr 10:21:51 10:23:22 12° 60° (ENE) 10:24:53 145.880/145.840
DELFI C3 28 Apr 10:22:30 10:26:25 51° 100° (E) 10:30:18 145.870
O/OREOS (USA 219) 28 Apr 10:23:07 10:27:43 78° 111° (ESE) 10:32:20 437.305
ZACube-1 28 Apr 10:33:37 10:37:13 28° 291° (WNW) 10:40:52 437.345
OBJECT BX 28 Apr 10:36:59 10:40:36 57° 100° (E) 10:44:13 145.990 - 145.960
AO-73 28 Apr 10:39:26 10:42:59 27° 292° (WNW) 10:46:34 145.935
NANOSAT C BR1 28 Apr 10:40:48 10:43:18 16° 63° (ENE) 10:45:49 145.865
HO-68 28 Apr 10:44:30 10:49:06 19° 308° (NW) 10:53:41 435.675
ISS 28 Apr 10:50:18 10:52:57 22° 353° (N) 10:55:37 437.550
AIST 2D 28 Apr 10:51:53 10:55:00 32° 71° (ENE) 10:58:08 435.315
Oscar 11 28 Apr 10:52:54 10:56:26 24° 293° (WNW) 10:59:57 .
PRISM 28 Apr 10:53:12 10:56:00 17° 267° (W) 10:58:50 437.425
EO-79 28 Apr 11:08:20 11:12:04 32° 69° (ENE) 11:15:49 145.935-145.965
DUCHIFAT 1 28 Apr 11:08:24 11:11:54 26° 67° (ENE) 11:15:24 145.980
LO-87 28 Apr 11:34:54 11:38:14 36° 98° (E) 11:41:31 145.935 - 145.965
TIGRISAT 28 Apr 11:40:05 11:41:22 11° 271° (W) 11:42:38 435.000
AO-85 28 Apr 11:40:13 11:43:24 20° 114° (ESE) 11:46:28 145.980
PCSat 28 Apr 11:44:27 11:49:47 58° 244° (WSW) 11:55:05 145.827
RS-15 28 Apr 11:45:54 11:56:09 29° 353° (N) 12:06:20 29.354- 29.394
POLYITAN 1 28 Apr 11:47:37 11:51:49 85° 79° (E) 11:56:03 437.675
FO-29 28 Apr 11:49:57 11:54:06 19° 268° (W) 11:58:00 435.910
Tancredo 1 28 Apr 11:51:48 11:54:17 22° 9° (N) 11:56:47 437.200
QB50P2 28 Apr 11:54:20 11:58:33 75° 256° (WSW) 12:02:47 145.880/145.840
DELFI C3 28 Apr 11:58:32 12:00:47 15° 297° (WNW) 12:03:00 145.870
BUGSAT 1 28 Apr 12:02:26 12:06:08 32° 69° (ENE) 12:09:48 437.445
Oscar 19 28 Apr 12:04:46 12:08:01 17° 59° (ENE) 12:11:17 437.125/150
O/OREOS (USA 219) 28 Apr 12:05:06 12:07:43 15° 311° (NW) 12:10:21 437.305
OBJECT BX 28 Apr 12:12:35 12:13:49 11° 297° (WNW) 12:15:03 145.990 - 145.960
NANOSAT C BR1 28 Apr 12:14:30 12:18:36 53° 260° (W) 12:22:44 145.865
Gurwin Techsat 1B 28 Apr 12:21:50 12:24:46 15° 58° (ENE) 12:27:44 435.225
AIST 2D 28 Apr 12:26:10 12:28:19 15° 268° (W) 12:30:28 435.315
ISS 28 Apr 12:27:20 12:30:09 26° 13° (NNE) 12:32:59 437.550
ESTCUBE 1 28 Apr 12:32:38 12:37:13 88° 107° (ESE) 12:41:46 437.505/2401.250
VELOX 1 28 Apr 12:37:57 12:41:46 28° 96° (E) 12:45:34 145.980
BEESAT 3 28 Apr 12:42:33 12:45:03 16° 111° (ESE) 12:47:35 437.485
DUCHIFAT 1 28 Apr 12:43:51 12:47:30 28° 264° (W) 12:51:08 145.980
EO-79 28 Apr 12:44:27 12:47:52 24° 265° (W) 12:51:17 145.935-145.965
SO-50 28 Apr 12:50:06 12:51:43 12° 29° (NNE) 12:53:20 436.795
AO-7 28 Apr 13:07:50 13:12:37 17° 44° (NE) 13:17:23 .
LO-87 28 Apr 13:09:14 13:11:23 15° 295° (WNW) 13:13:31 145.935 - 145.965
AO-85 28 Apr 13:19:31 13:23:33 43° 310° (NW) 13:27:24 145.980
DX 1 28 Apr 13:23:24 13:27:20 32° 97° (E) 13:31:13 434.975-435.025
SPROUT 28 Apr 13:25:37 13:29:54 88° 111° (ESE) 13:34:08 437.525
Tancredo 1 28 Apr 13:27:33 13:30:38 61° 29° (NNE) 13:33:41 437.200
50 SAT 28 Apr 13:29:27 13:32:55 61° 101° (E) 13:36:20 437.505
ITAMSAT 1 28 Apr 13:36:41 13:38:18 11° 55° (NE) 13:39:56 435.822/435.867
BUGSAT 1 28 Apr 13:38:17 13:41:32 22° 266° (W) 13:44:45 437.445
Oscar 19 28 Apr 13:41:36 13:46:45 72° 257° (WSW) 13:51:58 437.125/150
Gurwin Techsat 1B 28 Apr 13:58:41 14:04:01 85° 256° (WSW) 14:09:22 435.225
RS-15 28 Apr 14:02:13 14:13:27 37° 28° (NNE) 14:24:17 29.354- 29.394
ISS 28 Apr 14:03:41 14:06:57 86° 213° (SSW) 14:10:12 437.550
ESTCUBE 1 28 Apr 14:11:47 14:13:19 12° 301° (WNW) 14:14:50 437.505/2401.250
VELOX 1 28 Apr 14:14:20 14:18:11 30° 293° (WNW) 14:21:59 145.980
BEESAT 3 28 Apr 14:18:24 14:22:14 50° 309° (NW) 14:26:10 437.485
BEESAT 2 28 Apr 14:21:37 14:25:34 70° 121° (ESE) 14:29:34 435.950
UKube-1 28 Apr 14:22:07 14:26:27 85° 288° (WNW) 14:30:45 .
YUBILEINY 28 Apr 14:25:10 14:32:51 33° 67° (ENE) 14:40:31 435.215
SO-50 28 Apr 14:28:48 14:33:13 52° 50° (NE) 14:37:37 436.795
AO-7 28 Apr 14:55:41 15:03:49 64° 65° (ENE) 15:11:59 .
DX 1 28 Apr 14:59:47 15:03:23 26° 294° (WNW) 15:06:57 434.975-435.025
Tancredo 1 28 Apr 15:04:03 15:06:15 18° 225° (SW) 15:08:26 437.200
SPROUT 28 Apr 15:04:42 15:05:06 10° 301° (WNW) 15:05:30 437.525
ITUPSAT 1 28 Apr 15:05:59 15:09:51 24° 94° (E) 15:13:42 437.325
ITAMSAT 1 28 Apr 15:11:42 15:16:53 75° 73° (ENE) 15:22:04 435.822/435.867
MOZHAYETS 4 28 Apr 15:36:54 15:40:43 25° 94° (E) 15:44:31
ISS 28 Apr 15:41:43 15:42:57 12° 229° (SW) 15:44:12 437.550
Gurwin Techsat 1B 28 Apr 15:43:23 15:44:44 11° 273° (W) 15:46:05 435.225
BEESAT 28 Apr 16:01:01 16:05:49 84° 102° (ESE) 16:10:36 436.000
BEESAT 2 28 Apr 16:01:09 16:03:46 17° 321° (NW) 16:06:26 435.950
SO-50 28 Apr 16:10:04 16:13:19 20° 248° (WSW) 16:16:35 436.795
RS-15 28 Apr 16:15:27 16:27:50 87° 56° (NE) 16:39:35 29.354- 29.394
YUBILEINY 28 Apr 16:21:36 16:30:10 61° 269° (W) 16:38:45 435.215
CUBESAT XI-V 28 Apr 16:33:51 16:37:05 18° 91° (E) 16:40:17 437.345
CUTE-I 28 Apr 16:37:52 16:40:07 13° 56° (NE) 16:42:21 437.470
ITUPSAT 1 28 Apr 16:43:21 16:47:48 40° 291° (WNW) 16:52:16 437.325
AO-7 28 Apr 16:50:01 16:57:04 31° 265° (W) 17:04:12 .
ITAMSAT 1 28 Apr 16:54:09 16:56:54 14° 270° (W) 16:59:40 435.822/435.867
